,,PA_Meas_PMT16A,,PR_Meas_QMR101_102,,RH_Meas_QMH101,,SR_Meas_QMS101,,TA_Meas_QMH101,,GenWind,,GenWind,
time,status,PA,status,PR,status,RH,status,SR,status,TA,status,DirAvg,status,SpdAvg,
2012-05-19, 00:00:04,VALID,917.538,VALID,0,VALID,95.7882,VALID,0,VALID,20.2668,VALID,112,VALID,0.855078,
2012-05-19, 00:01:04,VALID,917.476,VALID,0,VALID,95.773,VALID,0,VALID,20.2653,VALID,112,VALID,0.93125,
2012-05-19, 00:02:04,VALID,917.49,VALID,0,VALID,95.7882,VALID,0,VALID,20.2458,VALID,111,VALID,0.851953,
2012-05-19, 00:03:04,VALID,917.445,VALID,0,VALID,95.7882,VALID,0,VALID,20.2668,VALID,112,VALID,0.785547,
2012-05-19, 00:04:04,VALID,917.428,VALID,0,VALID,95.7958,VALID,0,VALID,20.2263,VALID,112,VALID,0.716797,
2012-05-19, 00:05:04,VALID,917.429,VALID,0,VALID,95.8111,VALID,0.107441,VALID,20.2263,VALID,112,VALID,0.876953,
2012-05-19, 00:06:04,VALID,917.42,VALID,0,VALID,95.8263,VALID,0.107441,VALID,20.2263,VALID,111,VALID,0.474219,
2012-05-19, 00:07:04,VALID,917.417,VALID,0,VALID,95.8111,VALID,0,VALID,20.2263,VALID,112,VALID,0.784375,
2012-05-19, 00:08:04,VALID,917.421,VALID,0,VALID,95.8035,VALID,0.107441,VALID,20.2247,VALID,112,VALID,0.584375,
2012-05-19, 00:09:04,VALID,917.385,VALID,0,VALID,95.7806,VALID,0,VALID,20.2263,VALID,112,VALID,0.614453,
2012-05-19, 00:10:04,VALID,917.377,VALID,0,VALID,95.8035,VALID,0,VALID,20.2473,VALID,112,VALID,0.661328,
2012-05-19, 00:11:04,VALID,917.371,VALID,0,VALID,95.7958,VALID,0,VALID,20.2278,VALID,112,VALID,0.705469,
2012-05-19, 00:12:04,VALID,917.364,VALID,0,VALID,95.8416,VALID,0,VALID,20.2879,VALID,112,VALID,0.701172,
2012-05-19, 00:13:04,VALID,917.38,VALID,0,VALID,95.8111,VALID,0,VALID,20.2668,VALID,112,VALID,0.650391,
2012-05-19, 00:14:04,VALID,917.35,VALID,0,VALID,95.8263,VALID,0,VALID,20.3058,VALID,112,VALID,0.728516,
2012-05-19, 00:15:04,VALID,917.362,VALID,0,VALID,95.7882,VALID,0,VALID,20.2848,VALID,112,VALID,0.842578,
2012-05-19, 00:16:04,VALID,917.373,VALID,0,VALID,95.7806,VALID,0,VALID,20.3464,VALID,112,VALID,0.841016,
2012-05-19, 00:17:04,VALID,917.368,VALID,0,VALID,95.7349,VALID,0,VALID,20.3253,VALID,112,VALID,0.687109,
2012-05-19, 00:18:04,VALID,917.396,VALID,0,VALID,95.7349,VALID,0,VALID,20.3448,VALID,112,VALID,0.61875,
2012-05-19, 00:19:04,VALID,917.393,VALID,0,VALID,95.7044,VALID,0,VALID,20.3643,VALID,112,VALID,0.359766,
2012-05-19, 00:20:04,VALID,917.364,VALID,0,VALID,95.7044,VALID,0,VALID,20.3838,VALID,112,VALID,0.837109,
2012-05-19, 00:21:04,VALID,917.352,VALID,0,VALID,95.6662,VALID,0,VALID,20.4228,VALID,113,VALID,0.466016,
2012-05-19, 00:22:04,VALID,917.376,VALID,0,VALID,95.6205,VALID,0,VALID,20.4228,VALID,112,VALID,0.650391,
2012-05-19, 00:23:04,VALID,917.338,VALID,0,VALID,95.5595,VALID,0,VALID,20.4618,VALID,112,VALID,0.657812,
2012-05-19, 00:24:04,VALID,917.339,VALID,0,VALID,95.5138,VALID,0,VALID,20.4618,VALID,112,VALID,0.386328,
2012-05-19, 00:25:04,VALID,917.33,VALID,0,VALID,95.5138,VALID,0,VALID,20.5219,VALID,112,VALID,0.414063,
2012-05-19, 00:26:04,VALID,917.29,VALID,0,VALID,95.4604,VALID,0,VALID,20.4993,VALID,113,VALID,0,
2012-05-19, 00:27:04,VALID,917.296,VALID,0,VALID,95.4299,VALID,0,VALID,20.5204,VALID,112,VALID,0.587891,
2012-05-19, 00:28:04,VALID,917.293,VALID,0,VALID,95.3918,VALID,0,VALID,20.5399,VALID,112,VALID,0.828906,
2012-05-19, 00:29:04,VALID,917.317,VALID,0,VALID,95.3384,VALID,0,VALID,20.5188,VALID,112,VALID,0.670313,
2012-05-19, 00:30:04,VALID,917.298,VALID,0,VALID,95.3156,VALID,0,VALID,20.5399,VALID,113,VALID,0.523438,
2012-05-19, 00:31:04,VALID,917.303,VALID,0,VALID,95.2317,VALID,0,VALID,20.5383,VALID,112,VALID,0.342578,
2012-05-19, 00:32:04,VALID,917.301,VALID,0,VALID,95.1707,VALID,0,VALID,20.5188,VALID,112,VALID,0.278125,
2012-05-19, 00:33:04,VALID,917.305,VALID,0,VALID,95.125,VALID,0,VALID,20.5383,VALID,112,VALID,0.162891,
2012-05-19, 00:34:04,VALID,917.33,VALID,0,VALID,95.0564,VALID,0.107441,VALID,20.5578,VALID,112,VALID,0,
2012-05-19, 00:35:04,VALID,917.306,VALID,0,VALID,94.9954,VALID,0,VALID,20.5984,VALID,112,VALID,0,
2012-05-19, 00:36:04,VALID,917.251,VALID,0,VALID,94.9344,VALID,0,VALID,20.6179,VALID,112,VALID,0,
2012-05-19, 00:37:04,VALID,917.252,VALID,0,VALID,94.8658,VALID,0,VALID,20.6374,VALID,112,VALID,0,
2012-05-19, 00:38:04,VALID,917.201,VALID,0,VALID,94.7209,VALID,0,VALID,20.6179,VALID,112,VALID,0,
2012-05-19, 00:39:04,VALID,917.257,VALID,0,VALID,94.4694,VALID,0,VALID,20.5578,VALID,112,VALID,0,
2012-05-19, 00:40:04,VALID,917.238,VALID,0,VALID,94.4084,VALID,0,VALID,20.5383,VALID,112,VALID,0,
2012-05-19, 00:41:04,VALID,917.256,VALID,0,VALID,94.4617,VALID,0,VALID,20.4993,VALID,112,VALID,0,
2012-05-19, 00:42:04,VALID,917.234,VALID,0,VALID,94.4999,VALID,0,VALID,20.4813,VALID,112,VALID,0,
2012-05-19, 00:43:04,VALID,917.233,VALID,0,VALID,94.3931,VALID,0,VALID,20.4423,VALID,112,VALID,0.454688,
2012-05-19, 00:44:04,VALID,917.209,VALID,0,VALID,94.3855,VALID,0,VALID,20.4018,VALID,112,VALID,0.448438,
2012-05-19, 00:45:04,VALID,917.202,VALID,0,VALID,94.3017,VALID,0,VALID,20.3838,VALID,112,VALID,0,
2012-05-19, 00:46:04,VALID,917.225,VALID,0,VALID,94.2407,VALID,0,VALID,20.3643,VALID,112,VALID,0,
2012-05-19, 00:47:04,VALID,917.185,VALID,0,VALID,94.2483,VALID,0,VALID,20.3643,VALID,112,VALID,0,
2012-05-19, 00:48:04,VALID,917.157,VALID,0,VALID,94.2788,VALID,0,VALID,20.3058,VALID,112,VALID,0,
2012-05-19, 00:49:04,VALID,917.142,VALID,0,VALID,94.4008,VALID,0,VALID,20.3058,VALID,113,VALID,0,
2012-05-19, 00:50:04,VALID,917.13,VALID,0,VALID,94.5151,VALID,0,VALID,20.2863,VALID,112,VALID,0,
2012-05-19, 00:51:04,VALID,917.117,VALID,0,VALID,94.5913,VALID,0,VALID,20.2863,VALID,112,VALID,0,
2012-05-19, 00:52:04,VALID,917.108,VALID,0,VALID,94.6447,VALID,0,VALID,20.3058,VALID,112,VALID,0,
2012-05-19, 00:53:04,VALID,917.086,VALID,0,VALID,94.6828,VALID,0,VALID,20.2863,VALID,112,VALID,0,
2012-05-19, 00:54:04,VALID,917.081,VALID,0,VALID,94.7362,VALID,0,VALID,20.2668,VALID,112,VALID,0,
2012-05-19, 00:55:04,VALID,917.052,VALID,0,VALID,94.8124,VALID,0,VALID,20.2863,VALID,112,VALID,0,
2012-05-19, 00:56:04,VALID,917.08,VALID,0,VALID,94.8963,VALID,0,VALID,20.3058,VALID,112,VALID,0,
2012-05-19, 00:57:04,VALID,917.069,VALID,0,VALID,94.7133,VALID,0,VALID,20.2863,VALID,112,VALID,0,
2012-05-19, 00:58:04,VALID,917.072,VALID,0,VALID,94.6447,VALID,0,VALID,20.2879,VALID,112,VALID,0,
2012-05-19, 00:59:04,VALID,917.054,VALID,0,VALID,94.599,VALID,0,VALID,20.2473,VALID,112,VALID,0,
2012-05-19, 01:00:04,VALID,917.049,VALID,0,VALID,94.5456,VALID,0,VALID,20.2489,VALID,113,VALID,0,
2012-05-19, 01:01:04,VALID,917.068,VALID,0,VALID,94.5227,VALID,0,VALID,20.2278,VALID,113,VALID,0,
2012-05-19, 01:02:04,VALID,917.043,VALID,0,VALID,94.5532,VALID,0,VALID,20.1888,VALID,112,VALID,0,
2012-05-19, 01:03:04,VALID,917.031,VALID,0,VALID,94.6066,VALID,0,VALID,20.1498,VALID,112,VALID,0.619922,
2012-05-19, 01:04:04,VALID,917.006,VALID,0,VALID,94.6218,VALID,0,VALID,20.0913,VALID,112,VALID,0,
2012-05-19, 01:05:04,VALID,916.982,VALID,0,VALID,94.8734,VALID,0,VALID,20.0523,VALID,112,VALID,0,
2012-05-19, 01:06:04,VALID,916.967,VALID,0,VALID,95.1631,VALID,0,VALID,20.0523,VALID,112,VALID,0,
2012-05-19, 01:07:04,VALID,916.991,VALID,0,VALID,95.3384,VALID,0,VALID,20.0523,VALID,112,VALID,0,
2012-05-19, 01:08:04,VALID,916.984,VALID,0,VALID,95.468,VALID,0,VALID,20.0523,VALID,112,VALID,0,
2012-05-19, 01:09:04,VALID,916.971,VALID,0,VALID,95.6357,VALID,0,VALID,20.0523,VALID,112,VALID,0,
2012-05-19, 01:10:04,VALID,916.933,VALID,0,VALID,95.7958,VALID,0,VALID,20.1108,VALID,112,VALID,0,
2012-05-19, 01:11:04,VALID,916.963,VALID,0,VALID,95.8645,VALID,0,VALID,20.1108,VALID,112,VALID,0,
2012-05-19, 01:12:04,VALID,916.948,VALID,0,VALID,95.9102,VALID,0,VALID,20.1318,VALID,112,VALID,0,
2012-05-19, 01:13:04,VALID,916.924,VALID,0,VALID,95.9636,VALID,0,VALID,20.1108,VALID,112,VALID,0,
2012-05-19, 01:14:04,VALID,916.893,VALID,0,VALID,96.0017,VALID,0,VALID,20.1318,VALID,113,VALID,0,
2012-05-19, 01:15:04,VALID,916.864,VALID,0,VALID,96.0017,VALID,0,VALID,20.1123,VALID,113,VALID,0,
2012-05-19, 01:16:04,VALID,916.864,VALID,0,VALID,96.0322,VALID,0,VALID,20.0913,VALID,112,VALID,0,
2012-05-19, 01:17:04,VALID,916.867,VALID,0,VALID,95.9331,VALID,0,VALID,20.0718,VALID,113,VALID,0,
2012-05-19, 01:18:04,VALID,916.854,VALID,0,VALID,95.9254,VALID,0,VALID,20.0133,VALID,113,VALID,0,
2012-05-19, 01:19:04,VALID,916.846,VALID,0,VALID,96.0093,VALID,0,VALID,20.0148,VALID,113,VALID,0,
2012-05-19, 01:20:04,VALID,916.858,VALID,0,VALID,95.9941,VALID,0,VALID,19.9953,VALID,113,VALID,0,
2012-05-19, 01:21:04,VALID,916.827,VALID,0,VALID,96.1236,VALID,0,VALID,19.9938,VALID,113,VALID,0,
2012-05-19, 01:22:04,VALID,916.825,VALID,0,VALID,96.1694,VALID,0,VALID,19.9728,VALID,112,VALID,0,
2012-05-19, 01:23:04,VALID,916.781,VALID,0,VALID,96.2304,VALID,0,VALID,19.9728,VALID,113,VALID,0,
2012-05-19, 01:24:04,VALID,916.787,VALID,0,VALID,96.299,VALID,0,VALID,20.0133,VALID,112,VALID,0,
2012-05-19, 01:25:04,VALID,916.774,VALID,0,VALID,96.3447,VALID,0,VALID,20.0523,VALID,113,VALID,0,
2012-05-19, 01:26:04,VALID,916.768,VALID,0,VALID,96.3524,VALID,0,VALID,20.0328,VALID,112,VALID,0,
2012-05-19, 01:27:04,VALID,916.727,VALID,0,VALID,96.4057,VALID,0,VALID,20.0718,VALID,113,VALID,0,
2012-05-19, 01:28:04,VALID,916.732,VALID,0,VALID,96.36,VALID,0,VALID,20.0718,VALID,113,VALID,0,
2012-05-19, 01:29:04,VALID,916.706,VALID,0,VALID,96.3752,VALID,0,VALID,20.0733,VALID,113,VALID,0,
2012-05-19, 01:30:04,VALID,916.676,VALID,0,VALID,96.3524,VALID,0,VALID,20.0718,VALID,113,VALID,0,
2012-05-19, 01:31:04,VALID,916.625,VALID,0,VALID,96.36,VALID,0,VALID,20.0523,VALID,113,VALID,0,
2012-05-19, 01:32:04,VALID,916.613,VALID,0,VALID,96.3524,VALID,0,VALID,20.0718,VALID,113,VALID,0,
2012-05-19, 01:33:04,VALID,916.593,VALID,0,VALID,96.2533,VALID,0,VALID,20.0328,VALID,113,VALID,0,
2012-05-19, 01:34:04,VALID,916.567,VALID,0,VALID,96.238,VALID,0,VALID,20.0343,VALID,112,VALID,0.775391,
2012-05-19, 01:35:04,VALID,916.506,VALID,0,VALID,96.3219,VALID,0,VALID,19.9953,VALID,113,VALID,1.1918,
2012-05-19, 01:36:04,VALID,916.528,VALID,0,VALID,96.3219,VALID,0,VALID,19.9953,VALID,113,VALID,0.770312,
2012-05-19, 01:37:04,VALID,916.508,VALID,0,VALID,96.3142,VALID,0,VALID,19.9758,VALID,113,VALID,0.9625,
2012-05-19, 01:38:04,VALID,916.5,VALID,0,VALID,96.3066,VALID,0,VALID,19.9158,VALID,112,VALID,0.7875,
2012-05-19, 01:39:04,VALID,916.49,VALID,0,VALID,96.3142,VALID,0,VALID,19.8573,VALID,133,VALID,0.939844,
2012-05-19, 01:40:04,VALID,916.463,VALID,0,VALID,96.3905,VALID,0,VALID,19.8588,VALID,133,VALID,1.1207,
2012-05-19, 01:41:04,VALID,916.46,VALID,0,VALID,96.3752,VALID,0,VALID,19.8393,VALID,133,VALID,0.632422,
2012-05-19, 01:42:04,VALID,916.46,VALID,0,VALID,96.4133,VALID,0,VALID,19.8393,VALID,133,VALID,0.716016,
2012-05-19, 01:43:04,VALID,916.435,VALID,0,VALID,96.4743,VALID,0,VALID,19.7793,VALID,133,VALID,1.06367,
2012-05-19, 01:44:04,VALID,916.415,VALID,0,VALID,96.5811,VALID,0,VALID,19.8183,VALID,133,VALID,0.953125,
2012-05-19, 01:45:04,VALID,916.421,VALID,0,VALID,96.5963,VALID,0,VALID,19.7988,VALID,133,VALID,0.817969,
2012-05-19, 01:46:04,VALID,916.412,VALID,0,VALID,96.5658,VALID,0,VALID,19.7793,VALID,133,VALID,0.843359,
2012-05-19, 01:47:04,VALID,916.436,VALID,0,VALID,96.6192,VALID,0,VALID,19.8003,VALID,133,VALID,1.01328,
2012-05-19, 01:48:04,VALID,916.448,VALID,0,VALID,96.6192,VALID,0,VALID,19.7598,VALID,133,VALID,0.939844,
2012-05-19, 01:49:04,VALID,916.46,VALID,0,VALID,96.6497,VALID,0,VALID,19.7793,VALID,133,VALID,0.932031,
2012-05-19, 01:50:04,VALID,916.444,VALID,0,VALID,96.6192,VALID,0,VALID,19.7808,VALID,133,VALID,0.688281,
2012-05-19, 01:51:04,VALID,916.457,VALID,0,VALID,96.5963,VALID,0,VALID,19.7208,VALID,133,VALID,0.510938,
2012-05-19, 01:52:04,VALID,916.418,VALID,0,VALID,96.5963,VALID,0,VALID,19.7013,VALID,133,VALID,0.283984,
2012-05-19, 01:53:04,VALID,916.431,VALID,0,VALID,96.5887,VALID,0,VALID,19.7028,VALID,133,VALID,0.639453,
2012-05-19, 01:54:04,VALID,916.425,VALID,0,VALID,96.6192,VALID,0,VALID,19.6428,VALID,133,VALID,0.483203,
2012-05-19, 01:55:04,VALID,916.391,VALID,0,VALID,96.6573,VALID,0,VALID,19.6233,VALID,133,VALID,0.357422,
2012-05-19, 01:56:04,VALID,916.365,VALID,0,VALID,96.7183,VALID,0,VALID,19.6233,VALID,133,VALID,0.526953,
2012-05-19, 01:57:04,VALID,916.368,VALID,0,VALID,96.7564,VALID,0,VALID,19.6428,VALID,133,VALID,0.0953125,
2012-05-19, 01:58:04,VALID,916.374,VALID,0,VALID,96.8098,VALID,0,VALID,19.6638,VALID,133,VALID,0.208594,
2012-05-19, 01:59:04,VALID,916.357,VALID,0,VALID,96.825,VALID,0,VALID,19.6623,VALID,133,VALID,0.603906,
2012-05-19, 02:00:04,VALID,916.35,VALID,0,VALID,96.8098,VALID,0,VALID,19.6623,VALID,133,VALID,0.240234,
2012-05-19, 02:01:04,VALID,916.339,VALID,0,VALID,96.7869,VALID,0,VALID,19.6443,VALID,133,VALID,0.0347656,
2012-05-19, 02:02:04,VALID,916.327,VALID,0,VALID,96.7869,VALID,0,VALID,19.6038,VALID,133,VALID,0,
2012-05-19, 02:03:04,VALID,916.307,VALID,0,VALID,96.8098,VALID,0,VALID,19.5843,VALID,133,VALID,0.1375,
2012-05-19, 02:04:04,VALID,916.327,VALID,0,VALID,96.8555,VALID,0,VALID,19.6038,VALID,133,VALID,0.0195313,
2012-05-19, 02:05:04,VALID,916.324,VALID,0,VALID,96.8631,VALID,0,VALID,19.6053,VALID,133,VALID,0,
2012-05-19, 02:06:04,VALID,916.303,VALID,0,VALID,96.8936,VALID,0,VALID,19.6053,VALID,133,VALID,0,
2012-05-19, 02:07:04,VALID,916.297,VALID,0,VALID,96.8784,VALID,0,VALID,19.6248,VALID,133,VALID,0,
2012-05-19, 02:08:04,VALID,916.311,VALID,0,VALID,96.8555,VALID,0,VALID,19.5858,VALID,132,VALID,0,
2012-05-19, 02:09:04,VALID,916.316,VALID,0,VALID,96.9317,VALID,0,VALID,19.6248,VALID,132,VALID,0,
2012-05-19, 02:10:04,VALID,916.322,VALID,0,VALID,96.9775,VALID,0,VALID,19.6233,VALID,132,VALID,0,
2012-05-19, 02:11:04,VALID,916.304,VALID,0,VALID,96.9089,VALID,0,VALID,19.6443,VALID,132,VALID,0,
2012-05-19, 02:12:04,VALID,916.292,VALID,0,VALID,96.8631,VALID,0,VALID,19.6038,VALID,119,VALID,0,
2012-05-19, 02:13:04,VALID,916.256,VALID,0,VALID,96.8784,VALID,0,VALID,19.6248,VALID,100,VALID,0,
2012-05-19, 02:14:04,VALID,916.237,VALID,0,VALID,96.8631,VALID,0,VALID,19.6443,VALID,100,VALID,0,
2012-05-19, 02:15:04,VALID,916.236,VALID,0,VALID,96.7793,VALID,0,VALID,19.6248,VALID,100,VALID,0,
2012-05-19, 02:16:04,VALID,916.243,VALID,0,VALID,96.7564,VALID,0,VALID,19.6233,VALID,100,VALID,0,
2012-05-19, 02:17:04,VALID,916.216,VALID,0,VALID,96.7793,VALID,0,VALID,19.6233,VALID,100,VALID,0,
2012-05-19, 02:18:04,VALID,916.215,VALID,0,VALID,96.7488,VALID,0,VALID,19.6248,VALID,101,VALID,0,
2012-05-19, 02:19:04,VALID,916.207,VALID,0,VALID,96.7411,VALID,0,VALID,19.6248,VALID,99,VALID,0,
2012-05-19, 02:20:04,VALID,916.17,VALID,0,VALID,96.7716,VALID,0,VALID,19.6638,VALID,100,VALID,0,
2012-05-19, 02:21:04,VALID,916.205,VALID,0,VALID,96.7716,VALID,0,VALID,19.6233,VALID,99,VALID,0,
2012-05-19, 02:22:04,VALID,916.226,VALID,0,VALID,96.7793,VALID,0,VALID,19.6443,VALID,99,VALID,0,
2012-05-19, 02:23:04,VALID,916.205,VALID,0,VALID,96.7716,VALID,0,VALID,19.6638,VALID,99,VALID,0,
2012-05-19, 02:24:04,VALID,916.158,VALID,0,VALID,96.7869,VALID,0,VALID,19.6623,VALID,100,VALID,0,
2012-05-19, 02:25:04,VALID,916.178,VALID,0,VALID,96.7259,VALID,0,VALID,19.7028,VALID,100,VALID,0,
2012-05-19, 02:26:04,VALID,916.158,VALID,0,VALID,96.6802,VALID,0,VALID,19.6818,VALID,100,VALID,0,
2012-05-19, 02:27:04,VALID,916.175,VALID,0,VALID,96.5353,VALID,0,VALID,19.6833,VALID,100,VALID,0,
2012-05-19, 02:28:04,VALID,916.175,VALID,0,VALID,96.3142,VALID,0,VALID,19.5633,VALID,100,VALID,0,
2012-05-19, 02:29:04,VALID,916.169,VALID,0,VALID,96.2304,VALID,0,VALID,19.5258,VALID,100,VALID,0,
2012-05-19, 02:30:04,VALID,916.161,VALID,0,VALID,96.1999,VALID,0,VALID,19.4883,VALID,100,VALID,0,
2012-05-19, 02:31:04,VALID,916.173,VALID,0,VALID,96.1465,VALID,0,VALID,19.4088,VALID,100,VALID,0,
2012-05-19, 02:32:04,VALID,916.147,VALID,0,VALID,96.1389,VALID,0,VALID,19.3489,VALID,100,VALID,0,
2012-05-19, 02:33:04,VALID,916.167,VALID,0,VALID,96.3371,VALID,0,VALID,19.3698,VALID,100,VALID,0,
2012-05-19, 02:34:04,VALID,916.109,VALID,0,VALID,96.6039,VALID,0,VALID,19.4283,VALID,100,VALID,0,
2012-05-19, 02:35:04,VALID,916.14,VALID,0,VALID,96.6802,VALID,0,VALID,19.5063,VALID,100,VALID,0,
2012-05-19, 02:36:04,VALID,916.107,VALID,0,VALID,96.6649,VALID,0,VALID,19.5663,VALID,100,VALID,0,
2012-05-19, 02:37:04,VALID,916.112,VALID,0,VALID,96.6039,VALID,0,VALID,19.5258,VALID,100,VALID,0,
2012-05-19, 02:38:04,VALID,916.1,VALID,0,VALID,96.5811,VALID,0,VALID,19.5258,VALID,106,VALID,0,
2012-05-19, 02:39:04,VALID,916.107,VALID,0,VALID,96.5429,VALID,0,VALID,19.5468,VALID,120,VALID,0,
2012-05-19, 02:40:04,VALID,916.099,VALID,0,VALID,96.4819,VALID,0,VALID,19.5273,VALID,120,VALID,0,
2012-05-19, 02:41:04,VALID,916.106,VALID,0,VALID,96.5277,VALID,0,VALID,19.5273,VALID,129,VALID,0,
2012-05-19, 02:42:04,VALID,916.115,VALID,0,VALID,96.5963,VALID,0,VALID,19.5273,VALID,129,VALID,0,
2012-05-19, 02:43:04,VALID,916.085,VALID,0,VALID,96.6268,VALID,0,VALID,19.5063,VALID,128,VALID,0,
2012-05-19, 02:44:04,VALID,916.03,VALID,0,VALID,96.6268,VALID,0,VALID,19.5063,VALID,126,VALID,0,
2012-05-19, 02:45:04,VALID,916.052,VALID,0,VALID,96.6039,VALID,0,VALID,19.4673,VALID,114,VALID,0,
2012-05-19, 02:46:04,VALID,916.006,VALID,0,VALID,96.5887,VALID,0,VALID,19.4493,VALID,113,VALID,0,
2012-05-19, 02:47:04,VALID,916.009,VALID,0,VALID,96.6878,VALID,0,VALID,19.4478,VALID,114,VALID,0,
2012-05-19, 02:48:04,VALID,915.986,VALID,0,VALID,96.7183,VALID,0,VALID,19.4493,VALID,114,VALID,0,
2012-05-19, 02:49:04,VALID,915.965,VALID,0,VALID,96.7716,VALID,0,VALID,19.4283,VALID,114,VALID,0,
2012-05-19, 02:50:04,VALID,915.974,VALID,0,VALID,96.7793,VALID,0,VALID,19.4283,VALID,113,VALID,0,
2012-05-19, 02:51:04,VALID,915.975,VALID,0,VALID,96.7716,VALID,0,VALID,19.4088,VALID,114,VALID,0,
2012-05-19, 02:52:04,VALID,915.951,VALID,0,VALID,96.825,VALID,0,VALID,19.4493,VALID,114,VALID,0,
2012-05-19, 02:53:04,VALID,915.935,VALID,0,VALID,96.8631,VALID,0,VALID,19.4088,VALID,114,VALID,0,
2012-05-19, 02:54:04,VALID,915.916,VALID,0,VALID,96.8936,VALID,0,VALID,19.4478,VALID,121,VALID,0,
2012-05-19, 02:55:04,VALID,915.922,VALID,0,VALID,96.8936,VALID,0,VALID,19.4478,VALID,114,VALID,0,
2012-05-19, 02:56:04,VALID,915.918,VALID,0,VALID,96.9241,VALID,0,VALID,19.4883,VALID,115,VALID,0,
2012-05-19, 02:57:04,VALID,915.893,VALID,0,VALID,96.9241,VALID,0,VALID,19.5078,VALID,120,VALID,0,
2012-05-19, 02:58:04,VALID,915.922,VALID,0,VALID,96.9241,VALID,0,VALID,19.5063,VALID,120,VALID,0,
2012-05-19, 02:59:04,VALID,915.921,VALID,0,VALID,96.9165,VALID,0,VALID,19.5063,VALID,120,VALID,0,
2012-05-19, 03:00:04,VALID,915.933,VALID,0,VALID,96.9241,VALID,0,VALID,19.4883,VALID,124,VALID,0,
2012-05-19, 03:01:04,VALID,915.93,VALID,0,VALID,96.9241,VALID,0,VALID,19.4868,VALID,126,VALID,0,
2012-05-19, 03:02:04,VALID,915.902,VALID,0,VALID,96.9622,VALID,0,VALID,19.5063,VALID,126,VALID,0,
2012-05-19, 03:03:04,VALID,915.929,VALID,0,VALID,96.947,VALID,0,VALID,19.5078,VALID,128,VALID,0,
2012-05-19, 03:04:04,VALID,915.932,VALID,0,VALID,97.0003,VALID,0,VALID,19.5273,VALID,130,VALID,0,
2012-05-19, 03:05:04,VALID,915.921,VALID,0,VALID,96.9927,VALID,0,VALID,19.5063,VALID,136,VALID,0,
2012-05-19, 03:06:04,VALID,915.92,VALID,0,VALID,96.9927,VALID,0,VALID,19.5663,VALID,127,VALID,0,
2012-05-19, 03:07:04,VALID,915.912,VALID,0,VALID,97.008,VALID,0,VALID,19.5258,VALID,127,VALID,0,
2012-05-19, 03:08:04,VALID,915.919,VALID,0,VALID,97.008,VALID,0,VALID,19.5453,VALID,127,VALID,0,
2012-05-19, 03:09:04,VALID,915.948,VALID,0,VALID,97.0156,VALID,0,VALID,19.5453,VALID,128,VALID,0,
2012-05-19, 03:10:04,VALID,915.964,VALID,0,VALID,97.0156,VALID,0,VALID,19.5453,VALID,128,VALID,0,
2012-05-19, 03:11:04,VALID,915.959,VALID,0,VALID,97.008,VALID,0,VALID,19.5663,VALID,127,VALID,0,
2012-05-19, 03:12:04,VALID,915.96,VALID,0,VALID,96.9775,VALID,0,VALID,19.5258,VALID,127,VALID,0,
2012-05-19, 03:13:04,VALID,915.946,VALID,0,VALID,96.9927,VALID,0,VALID,19.5468,VALID,127,VALID,0,
2012-05-19, 03:14:04,VALID,915.945,VALID,0,VALID,96.9775,VALID,0,VALID,19.5258,VALID,128,VALID,0,
2012-05-19, 03:15:04,VALID,915.926,VALID,0,VALID,96.947,VALID,0,VALID,19.5273,VALID,127,VALID,0,
2012-05-19, 03:16:04,VALID,915.942,VALID,0,VALID,96.9546,VALID,0,VALID,19.5468,VALID,127,VALID,0,
2012-05-19, 03:17:04,VALID,915.937,VALID,0,VALID,96.9851,VALID,0,VALID,19.5648,VALID,127,VALID,0,
2012-05-19, 03:18:04,VALID,915.906,VALID,0,VALID,96.947,VALID,0,VALID,19.5648,VALID,127,VALID,0,
2012-05-19, 03:19:04,VALID,915.894,VALID,0,VALID,96.9394,VALID,0,VALID,19.5648,VALID,128,VALID,0,
2012-05-19, 03:20:04,VALID,915.893,VALID,0,VALID,96.947,VALID,0,VALID,19.5858,VALID,128,VALID,0,
2012-05-19, 03:21:04,VALID,915.903,VALID,0,VALID,96.9165,VALID,0,VALID,19.5648,VALID,128,VALID,0,
2012-05-19, 03:22:04,VALID,915.903,VALID,0,VALID,96.8707,VALID,0,VALID,19.6053,VALID,128,VALID,0,
2012-05-19, 03:23:04,VALID,915.89,VALID,0,VALID,96.8403,VALID,0,VALID,19.5858,VALID,128,VALID,0,
2012-05-19, 03:24:04,VALID,915.892,VALID,0,VALID,96.8174,VALID,0,VALID,19.5648,VALID,128,VALID,0,
2012-05-19, 03:25:04,VALID,915.865,VALID,0,VALID,96.8021,VALID,0,VALID,19.5858,VALID,128,VALID,0,
2012-05-19, 03:26:04,VALID,915.865,VALID,0,VALID,96.7259,VALID,0,VALID,19.5648,VALID,139,VALID,0,
2012-05-19, 03:27:04,VALID,915.84,VALID,0,VALID,96.6954,VALID,0,VALID,19.5648,VALID,139,VALID,0,
2012-05-19, 03:28:04,VALID,915.882,VALID,0,VALID,96.7183,VALID,0,VALID,19.5453,VALID,123,VALID,0,
2012-05-19, 03:29:04,VALID,915.846,VALID,0,VALID,96.6725,VALID,0,VALID,19.5648,VALID,129,VALID,0,
2012-05-19, 03:30:04,VALID,915.855,VALID,0,VALID,96.6497,VALID,0,VALID,19.5453,VALID,128,VALID,0,
2012-05-19, 03:31:04,VALID,915.846,VALID,0,VALID,96.6268,VALID,0,VALID,19.5843,VALID,128,VALID,0,
2012-05-19, 03:32:04,VALID,915.842,VALID,0,VALID,96.5811,VALID,0,VALID,19.5843,VALID,151,VALID,0,
2012-05-19, 03:33:04,VALID,915.843,VALID,0,VALID,96.5353,VALID,0.107441,VALID,19.6038,VALID,136,VALID,0,
2012-05-19, 03:34:04,VALID,915.832,VALID,0,VALID,96.4896,VALID,0,VALID,19.6038,VALID,143,VALID,0,
2012-05-19, 03:35:04,VALID,915.8,VALID,0,VALID,96.421,VALID,0,VALID,19.6233,VALID,143,VALID,0,
2012-05-19, 03:36:04,VALID,915.813,VALID,0,VALID,96.4133,VALID,0,VALID,19.6023,VALID,143,VALID,0,
2012-05-19, 03:37:04,VALID,915.797,VALID,0,VALID,96.36,VALID,0,VALID,19.6428,VALID,135,VALID,0,
2012-05-19, 03:38:04,VALID,915.806,VALID,0,VALID,96.2837,VALID,0,VALID,19.6218,VALID,135,VALID,0,
2012-05-19, 03:39:04,VALID,915.792,VALID,0,VALID,96.2456,VALID,0.107441,VALID,19.6023,VALID,135,VALID,0,
2012-05-19, 03:40:04,VALID,915.772,VALID,0,VALID,96.1999,VALID,0,VALID,19.6428,VALID,135,VALID,0,
2012-05-19, 03:41:04,VALID,915.784,VALID,0,VALID,96.1694,VALID,0,VALID,19.6023,VALID,135,VALID,0,
2012-05-19, 03:42:04,VALID,915.761,VALID,0,VALID,96.116,VALID,0,VALID,19.6233,VALID,135,VALID,0,
2012-05-19, 03:43:04,VALID,915.758,VALID,0,VALID,96.0855,VALID,0,VALID,19.5828,VALID,135,VALID,0,
2012-05-19, 03:44:04,VALID,915.726,VALID,0,VALID,96.0169,VALID,0,VALID,19.5633,VALID,135,VALID,0,
2012-05-19, 03:45:04,VALID,915.708,VALID,0,VALID,96.0169,VALID,0,VALID,19.5438,VALID,135,VALID,0,
2012-05-19, 03:46:04,VALID,915.673,VALID,0,VALID,96.055,VALID,0,VALID,19.5438,VALID,141,VALID,0,
2012-05-19, 03:47:04,VALID,915.71,VALID,0,VALID,95.9864,VALID,0,VALID,19.5438,VALID,135,VALID,0,
2012-05-19, 03:48:04,VALID,915.687,VALID,0,VALID,95.9864,VALID,0,VALID,19.5438,VALID,141,VALID,0,
2012-05-19, 03:49:04,VALID,915.669,VALID,0,VALID,96.0017,VALID,0,VALID,19.5648,VALID,131,VALID,0,
2012-05-19, 03:50:04,VALID,915.701,VALID,0,VALID,95.9483,VALID,0,VALID,19.5633,VALID,133,VALID,0,
2012-05-19, 03:51:04,VALID,915.686,VALID,0,VALID,95.9102,VALID,0,VALID,19.5828,VALID,136,VALID,0,
2012-05-19, 03:52:04,VALID,915.711,VALID,0,VALID,95.8873,VALID,0,VALID,19.6038,VALID,137,VALID,0,
2012-05-19, 03:53:04,VALID,915.712,VALID,0,VALID,95.8263,VALID,0,VALID,19.6428,VALID,139,VALID,0,
2012-05-19, 03:54:04,VALID,915.682,VALID,0,VALID,95.7654,VALID,0,VALID,19.6428,VALID,143,VALID,0,
2012-05-19, 03:55:04,VALID,915.675,VALID,0,VALID,95.6739,VALID,0,VALID,19.6218,VALID,141,VALID,0,